EW8476 Weather Reports


Display with metric or nautical units.
time (UTC)temp
F
wind
direction
speed
MPH
gust
MPH
rain 1hr
in
rain 24hr
in
rain mn
in
humidity
%
barometer
mb
20260506050548 71 175 5.0 7.0 0.00 0.00 0.00 90 935.8
20260506044523 71 163 3.0 6.0 0.00 0.00 0.00 89 935.8
20260506043611 71 176 3.0 6.0 0.00 0.00 0.00 87 935.9
20260506042558 72 167 3.0 6.0 0.00 0.00 0.00 86 935.8
20260506041542 72 163 2.0 6.0 0.00 0.00 0.00 86 935.7
20260506040523 72 178 2.0 6.0 0.00 0.00 0.00 85 935.6
20260506035614 72 168 2.0 6.0 0.00 0.00 0.00 86 935.5
20260506034658 72 180 4.0 6.0 0.00 0.00 0.00 85 935.4
20260506033548 72 181 4.0 7.0 0.00 0.00 0.00 86 935.4
20260506032536 72 176 4.0 6.0 0.00 0.00 0.00 85 935.4
20260506031522 73 177 3.0 5.0 0.00 0.00 0.00 84 935.2
20260506030609 73 186 3.0 6.0 0.00 0.00 0.00 84 935.0
20260506025550 73 172 3.0 6.0 0.00 0.00 0.00 83 934.9
20260506024537 73 173 3.0 6.0 0.00 0.00 0.00 83 934.9
20260506023526 74 182 4.0 7.0 0.00 0.00 0.00 82 934.8
20260506022616 74 175 4.0 7.0 0.00 0.00 0.00 82 934.5
20260506021554 74 181 3.0 5.0 0.00 0.00 0.00 81 934.5
20260506020551 75 190 2.0 6.0 0.00 0.00 0.00 80 934.4
20260506015527 75 171 3.0 5.0 0.00 0.00 0.00 78 934.4
20260506014614 76 148 2.0 5.0 0.00 0.00 0.00 77 934.3
20260506013600 76 246 1.0 4.0 0.00 0.00 0.00 76 934.1
20260506012551 76 177 1.0 4.0 0.00 0.00 0.00 75 933.9
20260506011538 77 180 2.0 5.0 0.00 0.00 0.00 74 933.7
20260506010520 78 182 3.0 6.0 0.00 0.00 0.00 71 933.7
20260506005608 78 159 2.0 8.0 0.00 0.00 0.00 71 933.7
20260506004601 78 184 5.0 8.0 0.00 0.00 0.00 70 933.7
20260506003533 79 184 6.0 11.0 0.00 0.00 0.00 69 933.7
20260506002521 80 174 7.0 13.0 0.00 0.00 0.00 68 933.9
20260506001607 80 159 5.0 12.0 0.00 0.00 0.00 68 933.9
20260506000556 80 187 5.0 10.0 0.00 0.00 0.00 68 933.9
20260505235530 81 174 6.0 11.0 0.00 0.00 0.00 66 934.0
20260505234521 81 178 8.0 11.0 0.00 0.00 0.00 66 933.9
20260505233603 81 188 7.0 12.0 0.00 0.00 0.00 65 933.7
20260505232555 81 193 6.0 10.0 0.00 0.00 0.00 66 933.8
20260505231534 81 185 7.0 13.0 0.00 0.00 0.00 64 933.8
20260505230635 81 180 6.0 12.0 0.00 0.00 0.00 64 933.7
20260505225559 81 184 4.0 10.0 0.00 0.00 0.00 65 933.6
20260505224614 81 186 5.0 12.0 0.00 0.00 0.00 65 933.7
20260505223525 82 180 7.0 12.0 0.00 0.00 0.00 63 933.8
20260505222615 81 181 6.0 11.0 0.00 0.00 0.00 64 933.7
20260505221614 82 176 6.0 12.0 0.00 0.00 0.00 64 933.8
20260505220544 82 192 5.0 11.0 0.00 0.00 0.00 64 933.9
20260505215551 81 204 7.0 13.0 0.00 0.00 0.00 64 933.9
20260505214516 82 189 6.0 12.0 0.00 0.00 0.00 64 934.0
20260505213613 81 185 4.0 13.0 0.00 0.00 0.00 65 934.1
20260505212631 81 211 9.0 14.0 0.00 0.00 0.00 64 934.3
20260505211538 82 187 7.0 13.0 0.00 0.00 0.00 63 934.3
20260505210529 82 174 6.0 14.0 0.00 0.00 0.00 63 934.3
20260505205654 82 201 7.0 12.0 0.00 0.00 0.00 63 934.5
20260505204557 82 199 6.0 13.0 0.00 0.00 0.00 62 934.4
20260505203553 82 199 5.0 13.0 0.00 0.00 0.00 62 934.7
20260505202537 82 207 5.0 11.0 0.00 0.00 0.00 62 934.6
20260505201610 82 202 8.0 16.0 0.00 0.00 0.00 62 934.9
20260505200555 82 204 6.0 14.0 0.00 0.00 0.00 62 934.7
20260505195542 81 195 5.0 11.0 0.00 0.00 0.00 63 935.0
20260505194611 81 220 8.0 13.0 0.00 0.00 0.00 61 934.9
20260505193600 81 220 8.0 11.0 0.00 0.00 0.00 62 935.1
20260505192557 81 202 9.0 15.0 0.00 0.00 0.00 64 934.9
20260505191529 80 198 10.0 14.0 0.00 0.00 0.00 64 935.0
20260505190527 80 211 10.0 16.0 0.00 0.00 0.00 65 935.2
20260505185605 79 221 9.0 15.0 0.00 0.00 0.00 65 935.2
20260505184551 79 227 8.0 13.0 0.00 0.00 0.00 66 935.3
20260505183533 79 235 7.0 12.0 0.00 0.00 0.00 66 935.5
20260505182519 79 218 6.0 10.0 0.00 0.00 0.00 68 935.6
20260505181634 78 206 8.0 12.0 0.00 0.00 0.00 69 935.6
20260505180649 78 237 7.0 12.0 0.00 0.00 0.00 70 935.8
20260505175527 77 213 10.0 13.0 0.00 0.00 0.00 71 935.8
20260505174603 77 213 8.0 13.0 0.00 0.00 0.00 73 935.8
20260505173552 76 231 9.0 14.0 0.00 0.00 0.00 74 935.8
20260505172636 75 211 8.0 14.0 0.00 0.00 0.00 75 935.8
20260505171540 75 214 10.0 15.0 0.00 0.00 0.00 75 935.9
20260505170603 74 205 8.0 14.0 0.00 0.00 0.00 77 936.0
20260505165553 74 220 9.0 13.0 0.00 0.00 0.00 79 936.1
20260505164536 73 230 8.0 13.0 0.00 0.00 0.00 80 935.8
20260505163519 73 231 7.0 15.0 0.00 0.00 0.00 81 935.7
20260505162610 72 223 9.0 14.0 0.00 0.00 0.00 82 935.6
20260505161559 71 229 10.0 14.0 0.00 0.00 0.00 83 935.5
20260505160608 71 229 9.0 15.0 0.00 0.00 0.00 84 935.4
20260505152543 69 209 14.0 20.0 0.00 0.00 0.00 88 935.4
20260505151526 69 220 10.0 17.0 0.00 0.00 0.00 90 935.4
20260505150618 68 208 12.0 17.0 0.00 0.00 0.00 91 935.3
20260505140543 66 202 10.0 17.0 0.00 0.00 0.00 96 934.9
20260505124652 67 203 11.0 18.0 0.00 0.00 0.00 95 934.4
20260505123526 66 201 12.0 19.0 0.00 0.00 0.00 95 934.2
20260505122606 66 201 10.0 19.0 0.00 0.00 0.00 95 934.0
20260505121554 66 189 11.0 19.0 0.00 0.00 0.00 95 933.9
20260505120533 66 197 14.0 23.0 0.00 0.00 0.00 96 933.9
20260505115610 66 189 15.0 21.0 0.00 0.00 0.00 95 933.7
20260505114557 66 200 11.0 23.0 0.00 0.00 0.00 95 933.6
20260505113609 66 201 11.0 19.0 0.00 0.00 0.00 94 933.6
20260505112530 66 197 13.0 20.0 0.00 0.00 0.00 94 933.5
20260505111612 66 191 14.0 21.0 0.00 0.00 0.00 94 933.6
20260505110626 66 188 12.0 19.0 0.00 0.00 0.00 94 933.8
20260505101551 66 190 13.0 21.0 0.00 0.00 0.00 93 933.7
20260505100545 66 180 11.0 21.0 0.00 0.00 0.00 93 933.7
20260505095519 66 183 16.0 27.0 0.00 0.00 0.00 93 933.8
20260505094716 66 189 12.0 23.0 0.00 0.00 0.00 93 933.6
20260505093556 67 192 16.0 24.0 0.00 0.00 0.00 93 933.7
20260505092547 67 190 16.0 22.0 0.00 0.00 0.00 92 933.8
20260505091522 67 185 14.0 24.0 0.00 0.00 0.00 92 933.8
20260505090603 67 185 14.0 28.0 0.00 0.00 0.00 92 933.8
20260505085551 67 188 14.0 22.0 0.00 0.00 0.00 92 933.9
20260505084537 67 191 18.0 25.0 0.00 0.00 0.00 91 933.8
20260505083539 67 182 15.0 26.0 0.00 0.00 0.00 91 934.1
20260505082606 67 181 16.0 23.0 0.00 0.00 0.00 91 934.0
20260505081551 67 179 17.0 30.0 0.00 0.00 0.00 91 934.5
20260505080533 67 174 15.0 27.0 0.00 0.00 0.00 91 934.3
20260505075520 67 180 14.0 26.0 0.00 0.00 0.00 91 934.2
20260505074611 67 179 18.0 26.0 0.00 0.00 0.00 91 934.2
20260505073605 67 181 17.0 29.0 0.00 0.00 0.00 91 934.3
20260505072523 67 180 16.0 27.0 0.00 0.00 0.00 91 934.5
20260505071650 67 182 17.0 26.0 0.00 0.00 0.00 91 934.3
20260505070605 67 175 15.0 28.0 0.00 0.00 0.00 90 934.5
20260505065553 67 176 16.0 26.0 0.00 0.00 0.00 91 934.6
20260505064538 66 182 15.0 26.0 0.00 0.00 0.00 91 934.6
20260505063608 66 175 16.0 24.0 0.00 0.00 0.00 91 934.6
20260505062556 67 177 14.0 21.0 0.00 0.00 0.00 90 934.9
20260505061538 67 172 14.0 22.0 0.00 0.00 0.00 89 935.1
20260505060528 67 181 17.0 22.0 0.00 0.00 0.00 88 935.1
20260505055517 67 176 14.0 22.0 0.00 0.00 0.00 87 935.0